#timestamp,LO_Frequency,Hit,StdDev 
1624381215.1,286046999.2,N
1624381216.0,286046999.2,N
1624381235.8,286046998.7,N
1624381255.6,286046998.6,N
1624381275.5,286047000.7,N
1624381295.3,286046998.5,N
1624381315.1,286047000.2,N
1624381335.9,286046999.7,N
1624381355.7,286047000.5,N
1624381375.5,286047002.8,N
1624381395.4,286047000.2,N
1624381415.2,286047000.4,N
1624381435.0,286047000.9,N
1624381435.9,286047000.9,N
1624381455.8,286046999.8,N
1624381475.6,286047002.6,N
1624381495.4,286047002.6,N
1624381515.3,286047002.1,N
1624381535.1,286047001.8,N
1624381555.8,286047002.7,N
1624381575.7,286047001.6,N
1624381595.5,286047001.9,N
1624381615.3,286047004.3,N
1624381635.2,286047002.1,N
1624381655.0,286047002.0,N
1624381655.9,286047002.0,N
1624381675.7,286047002.1,N
1624381695.6,286047001.9,N
1624381715.4,286047004.1,N
1624381735.2,286047003.3,N
1624381755.1,286047001.3,N
1624381756.0,286047001.3,N
1624381775.8,286047003.8,N
1624381795.6,286047004.1,N
1624381815.5,286047003.2,N
1624381835.3,286047003.8,N
1624381855.1,286047003.1,N
1624381875.9,286047003.8,N
1624381895.7,286047003.6,N
1624381915.5,286047003.9,Y
1624381935.4,286047000.7,P
1624381955.2,286046996.5,P
1624381975.0,286046997.4,N
1624381975.9,286046997.4,N
1624381995.8,286046996.2,N
1624382015.6,286046996.1,N
1624382035.4,286046995.6,N
1624382055.3,286046993.7,N
1624382075.1,286046993.8,N
1624382095.8,286046994.8,N
1624382115.7,286046994.2,N
1624382135.5,286046994.4,N
1624382155.3,286046994.0,N
1624382175.2,286046993.7,N
1624382195.9,286046995.2,N
1624382215.7,286046996.7,N
1624382235.6,286046998.7,N
1624382255.4,286046998.5,N
1624382275.2,286047001.1,N
1624382295.1,286047000.0,N
1624382296.0,286047000.0,N
1624382315.8,286047002.4,N
1624382335.6,286046999.7,N
1624382355.5,286047002.8,N
1624382375.3,286047002.0,N
1624382395.1,286047001.8,N
1624382415.9,286047004.1,N
1624382435.7,286047001.8,N
1624382455.5,286047002.3,N
1624382475.4,286047001.4,N
1624382495.2,286047004.4,N
1624382515.0,286047002.1,N
1624382515.9,286047002.1,N
1624382535.7,286047001.5,N
1624382555.6,286047001.7,N
1624382575.4,286047001.7,N
1624382595.2,286047004.3,N
1624382615.1,286047003.9,N
1624382616.0,286047003.9,N
1624382635.8,286047004.2,N
1624382655.6,286047003.7,N
1624382675.5,286047004.2,N
1624382695.3,286047005.8,N
1624382715.1,286047005.0,N
1624382735.9,286047005.3,N
1624382755.7,286047005.3,N
1624382775.5,286047005.0,N
1624382795.4,286047007.6,Y
1624382815.2,286047003.9,P
1624382835.0,286047001.6,N
1624382835.9,286047001.6,N
1624382855.8,286047004.4,Y
1624382875.6,286047000.4,P
1624382895.4,286047000.1,N
1624382915.3,286047000.3,N
1624382935.1,286047000.2,N
1624382955.8,286047002.1,N
1624382975.7,286047002.3,N
1624382995.5,286046999.9,N
1624383015.3,286046999.9,N
1624383035.2,286046999.7,N
1624383055.9,286047002.5,N
1624383075.7,286047001.6,N
1624383095.6,286047002.0,N
1624383115.4,286047001.7,N
1624383135.2,286047003.9,Y
1624383155.1,286047002.5,P
1624383156.0,286047002.5,P
1624383175.8,286047001.9,N
1624383195.6,286047002.2,Y
1624383215.5,286047000.1,P
1624383235.3,286047000.1,N
1624383255.1,286046999.7,N
1624383275.9,286046999.7,N
1624383295.7,286047000.0,N
1624383315.5,286047002.4,N
1624383335.4,286047011.9,Y
1624383355.2,286047000.5,P
1624383375.0,286047000.2,P
1624383375.9,286047000.2,N
1624383395.8,286046999.7,N
1624383415.6,286047002.7,Y
1624383435.4,286047000.0,P
1624383455.3,286047000.4,P
1624383475.1,286047001.0,P
1624383476.0,286047001.0,N
1624383495.8,286046999.9,N
1624383515.7,286047002.3,Y
1624383535.5,286047002.7,P
1624383555.3,286047000.6,N
1624383575.2,286047000.2,N
1624383595.9,286047000.4,N
1624383615.7,286047002.3,N
1624383635.6,286047002.0,N
1624383655.4,286047002.3,N
1624383675.2,286046999.8,N
1624383695.1,286047001.9,N
1624383696.0,286047001.9,N
1624383715.8,286047001.4,N
1624383735.6,286047002.1,N
1624383755.5,286047001.6,N
1624383775.3,286047002.1,N
1624383795.1,286046999.8,N
1624383815.8,286047002.4,N
1624383835.7,286046999.7,N
1624383855.5,286047000.6,N
1624383875.3,286047001.2,N
1624383895.2,286047001.1,N
1624383915.0,286047000.0,N
1624383915.9,286047000.0,N
1624383935.7,286047001.5,N
1624383955.6,286047004.4,Y
1624383975.4,286047002.0,P
1624383995.2,286046999.7,N
1624384015.1,286047001.9,N
1624384016.0,286047001.9,N
1624384035.8,286047002.3,N
1624384055.6,286047002.7,Y
1624384075.5,286047001.1,P
1624384095.3,286046998.6,P
1624384115.1,286046998.5,N
1624384135.9,286047000.8,N
1624384155.7,286047000.9,N
1624384175.5,286046998.1,N
1624384195.4,286046998.1,N
1624384215.2,286046999.0,N
1624384235.0,286046999.3,N
1624384235.9,286046999.3,N
1624384255.8,286046998.7,N
1624384275.6,286046998.7,N
1624384295.4,286046996.9,N
1624384315.3,286046996.5,N
1624384335.1,286046999.4,N
1624384355.8,286046999.3,N
1624384375.7,286046997.1,N
1624384395.5,286046997.1,N
1624384415.3,286046999.6,N
1624384435.2,286046997.8,N
1624384455.9,286046996.8,N
1624384475.7,286046997.0,N
1624384495.6,286046996.5,N
1624384515.4,286046996.6,N
1624384535.2,286046999.3,N
1624384555.1,286046999.6,N
1624384556.0,286046999.6,N
1624384575.8,286046996.5,N
1624384595.6,286046997.5,N
1624384615.5,286046997.3,N
1624384635.3,286046999.6,N
1624384655.1,286046997.2,N
1624384675.9,286046996.8,N
1624384695.7,286046997.4,N
1624384715.5,286046997.1,N
1624384735.4,286046996.6,Y
1624384755.2,286047000.2,P
1624384775.0,286046998.3,N
1624384775.9,286046998.3,N
1624384795.8,286046998.9,N
